Tims Ford Lake Weather Center

Moon Phase Calendar



Tims Ford Lake Water Level
Online Cameras

 


      

Current Conditions in Estill Springs
10/25/2020 5:51:53 PM

67°F
Feels Like 69
Clouds
Humidity
82%
Pressure
29.97"
Wind
3.5 mph (WNW)
Dew Point
61°F
UV Index
4/10 (Moderate)
Visibility
6 mi

Hourly Forecast

Date & Time Sun, Oct 25
5:00 PM
Sun, Oct 25
6:00 PM
Sun, Oct 25
7:00 PM
Sun, Oct 25
8:00 PM
Sun, Oct 25
9:00 PM
Sun, Oct 25
10:00 PM
Sun, Oct 25
11:00 PM
Mon, Oct 26
12:00 AM
Mon, Oct 26
1:00 AM
Mon, Oct 26
2:00 AM
Mon, Oct 26
3:00 AM
Mon, Oct 26
4:00 AM
Mon, Oct 26
5:00 AM
Mon, Oct 26
6:00 AM
Mon, Oct 26
7:00 AM
Mon, Oct 26
8:00 AM
Mon, Oct 26
9:00 AM
Mon, Oct 26
10:00 AM
Mon, Oct 26
11:00 AM
Mon, Oct 26
12:00 PM
Mon, Oct 26
1:00 PM
Mon, Oct 26
2:00 PM
Mon, Oct 26
3:00 PM
Mon, Oct 26
4:00 PM
Mon, Oct 26
5:00 PM
Mon, Oct 26
6:00 PM
Mon, Oct 26
7:00 PM
Mon, Oct 26
8:00 PM
Mon, Oct 26
9:00 PM
Mon, Oct 26
10:00 PM
Mon, Oct 26
11:00 PM
Tue, Oct 27
12:00 AM
Tue, Oct 27
1:00 AM
Tue, Oct 27
2:00 AM
Tue, Oct 27
3:00 AM
Tue, Oct 27
4:00 AM
Tue, Oct 27
5:00 AM
Tue, Oct 27
6:00 AM
Tue, Oct 27
7:00 AM
Tue, Oct 27
8:00 AM
Tue, Oct 27
9:00 AM
Tue, Oct 27
10:00 AM
Tue, Oct 27
11:00 AM
Tue, Oct 27
12:00 PM
Tue, Oct 27
1:00 PM
Tue, Oct 27
2:00 PM
Tue, Oct 27
3:00 PM
Tue, Oct 27
4:00 PM
Condition
Clouds

Clouds

Clouds

Clouds

Clouds

Clouds

Clouds

Clouds

Clouds

Clouds

Clouds

Clouds

Clouds

Clouds

Clouds

Clouds

Clouds

Clouds

Clouds

Clouds

Clouds

Clouds

Clouds

Clouds

Clouds

Clouds

Clouds

Clouds

Clouds

Clouds

Clouds

Clouds

Clouds

Clouds

Clouds

Clouds

Clouds

Clouds

Clouds

Clear

Clouds

Clouds

Clouds

Rain

Rain

Rain

Rain

Rain
Temperature 67°F66°F65°F64°F63°F62°F63°F63°F62°F62°F62°F62°F62°F61°F61°F60°F60°F61°F62°F64°F65°F67°F68°F66°F64°F61°F61°F60°F60°F61°F60°F60°F59°F59°F58°F58°F60°F60°F59°F62°F66°F69°F72°F73°F73°F74°F75°F73°F
Feels Like 69°F68°F67°F67°F66°F64°F65°F65°F64°F64°F65°F64°F63°F62°F61°F60°F60°F60°F62°F64°F65°F67°F67°F65°F62°F59°F59°F58°F59°F60°F60°F59°F57°F58°F59°F59°F61°F60°F59°F62°F67°F70°F73°F74°F75°F76°F76°F75°F
Cloudiness 90%80%78%99%100%96%97%98%95%99%99%100%100%100%100%100%100%100%100%99%98%70%55%66%72%78%81%100%100%100%100%100%97%94%81%76%82%74%63%2%16%29%31%39%46%96%93%94%
Visibility 6 mi6 mi6 mi6 mi6 mi6 mi6 mi6 mi6 mi6 mi6 mi6 mi6 mi6 mi6 mi6 mi6 mi6 mi6 mi6 mi6 mi6 mi6 mi6 mi6 mi6 mi6 mi6 mi6 mi6 mi6 mi6 mi6 mi6 mi6 mi6 mi6 mi6 mi6 mi6 mi6 mi6 mi6 mi6 mi6 mi6 mi6 mi6 mi
Precipitation 0%0%0%0%0%0%0%0%0%1%1%0%0%0%0%15%15%16%16%12%12%6%6%6%7%6%6%10%5%1%0%0%0%0%0%0%0%0%0%0%0%0%0%20%20%47%62%52%
Humidity 82%85%86%87%89%91%89%89%90%89%89%89%89%88%88%88%88%86%83%80%78%75%73%77%81%82%83%83%83%83%85%86%88%88%90%91%88%91%92%90%82%78%74%73%73%73%71%77%
Dew Point 61°F61°F61°F60°F60°F60°F60°F60°F59°F59°F59°F59°F59°F58°F57°F57°F57°F57°F57°F58°F58°F59°F59°F59°F58°F56°F56°F55°F55°F56°F56°F56°F56°F56°F56°F56°F57°F57°F57°F59°F61°F62°F63°F64°F64°F65°F65°F66°F
Pressure 29.97"29.97"29.97"30"30"30.03"30.03"30.03"30.03"30.03"30.03"30.03"30.06"30.06"30.09"30.09"30.12"30.12"30.12"30.12"30.12"30.09"30.09"30.06"30.06"30.09"30.09"30.12"30.12"30.15"30.15"30.15"30.15"30.15"30.12"30.12"30.12"30.12"30.12"30.15"30.15"30.15"30.15"30.12"30.09"30.09"30.06"30.06"
Wind Speed 3.3 mph3.5 mph2.7 mph2.1 mph2.1 mph1.9 mph1.5 mph1.8 mph1.8 mph1.5 mph0.9 mph1.2 mph2.2 mph3.4 mph4.1 mph4.1 mph4.5 mph4.7 mph4.2 mph3.9 mph4.2 mph4.8 mph5.6 mph6.6 mph7.8 mph8.1 mph6.3 mph5.8 mph5.4 mph4.2 mph4.2 mph4.6 mph5.7 mph4.9 mph2.8 mph1.9 mph2.4 mph3.4 mph4.6 mph3.4 mph3.8 mph4.3 mph5.6 mph5.8 mph5.7 mph4.5 mph6 mph5.9 mph
Wind
Direction
298°
WNW
303°
WNW
312°
NW
322°
NW
327°
NNW
340°
NNW
348°
NNW
357°
N
24°
NNE
40°
NE
360°
N
301°
WNW
294°
WNW
308°
NW
316°
NW
330°
NNW
336°
NNW
351°
N
356°
N
348°
NNW
339°
NNW
339°
NNW
339°
NNW
347°
NNW
356°
N

N
18°
NNE
33°
NNE
34°
NE
30°
NNE
20°
NNE
14°
NNE
18°
NNE
31°
NNE
41°
NE
57°
ENE
73°
ENE
92°
E
114°
ESE
118°
ESE
129°
SE
134°
SE
147°
SSE
154°
SSE
158°
SSE
150°
SSE
130°
SE
113°
ESE

Daily Forecast

Date High Low Precip. Humidity
Today
Oct 25

Clouds
69 °F
55 °F
0%
74%
Monday
Oct 26

Clouds
66 °F
61 °F
16%
78%
Tuesday
Oct 27

Rain
73 °F
58 °F
52%
73%
Wednesday
Oct 28

Rain
72 °F
66 °F
100%
85%
Thursday
Oct 29

Rain
71 °F
52 °F
98%
90%
Friday
Oct 30

Clouds
58 °F
48 °F
0%
79%
Saturday
Oct 31

Clear
64 °F
45 °F
0%
64%
Sunday
Nov 1

Rain
54 °F
48 °F
100%
88%
Monday
Nov 2

Rain
58 °F
53 °F
90%
94%
Tuesday
Nov 3

Rain
62 °F
54 °F
100%
88%
Wednesday
Nov 4

Rain
64 °F
57 °F
100%
80%
Thursday
Nov 5

Rain
64 °F
56 °F
86%
86%
Friday
Nov 6

Clear
70 °F
54 °F
0%
64%
Saturday
Nov 7

Rain
70 °F
56 °F
34%
64%
Sunday
Nov 8

Clear
70 °F
56 °F
0%
63%
Monday
Nov 9

Rain
65 °F
57 °F
94%
72%


Temperature 8-14 Day Outlook



Precipitation 8-14 Day Outlook




Quick Links
Tims Ford Lake News
Tims Ford Lake Photos
Tims Ford Lake Videos




About Us
Contact Us
Site Map
Search Site
Advertise With Us
   
TimsFord.USLakes.info
THE TIMS FORD LAKE WEBSITE

Copyright 2020, Lakes Online
Privacy    |    Legal